Weather History for Cordoba, Spain

Change the Weather History Date:

Saturday, December 7, 2013

  Actual Average Record
Temperature  
Mean Temperature 48 °F -  
Max Temperature 65 °F - - ()
Min Temperature 30 °F - - ()
Degree Days  
Heating Degree Days 18    
Moisture  
Dew Point 31 °F    
Average Humidity 58    
Maximum Humidity 90    
Minimum Humidity 17    
Precipitation  
Precipitation 0.00 in 0.11 in - ()
Sea Level Pressure  
Sea Level Pressure 30.26 in    
Wind  
Wind Speed 1 mph ()    
Max Wind Speed 6 mph    
Max Gust Speed -    
Visibility 19.0 miles    
Events      
T = Trace of Precipitation, MM = Missing Value Source: Averaged Metar Reports

Daily Weather History Graph

Daily Weather History Graph

Search for Another Location

Airport:

Trip Planner

Search our weather history database for the weather conditions in past years. The results will help you decide how hot, cold, wet, or windy it might be!

Date:

Astronomy

Dec. 07, 2013 Rise Set
Actual Time 8:21 AM CET 6:00 PM CET
Civil Twilight 7:52 AM CET 6:29 PM CET
Nautical Twilight 7:19 AM CET 7:02 PM CET
Astronomical Twilight 6:47 AM CET 7:33 PM CET
Moon 12:01 PM CET (12/7) 11:21 PM CET (12/7)
Length of Visible Light 10h 36m
Length of Day
9h 38m
Waxing Crescent, 26% of the Moon is Illuminated
Dec 7
Waxing Crescent
Dec 9
First Quarter
Dec 17
Full
Dec 25
Last Quarter
Jan 1
New

Hourly Weather History & Observations

Time (CET) Temp. Windchill Dew Point Humidity Pressure Visibility Wind Dir Wind Speed Gust Speed Precip Events Conditions
12:00 AM 38 °F - 31 °F 68% 30.26 in - East 2.3 mph - -  
1:00 AM 36 °F - 31 °F 74% 30.26 in - Calm Calm - -  
2:00 AM 34 °F - 29 °F 76% 30.26 in - Calm Calm - -  
3:00 AM 33 °F - 29 °F 78% 30.27 in - Calm Calm - -  
5:00 AM 31 °F - 27 °F 81% 30.26 in - Calm Calm - -  
6:00 AM 33 °F - 30 °F 82% 30.26 in - East 3.5 mph - -  
7:00 AM 31 °F - 29 °F 88% 30.27 in 19 mi East 2.3 mph - -  
7:00 AM 32.0 °F - 26.6 °F 80% 30.24 in - ESE 1.2 mph - N/A   Clear
8:00 AM 30 °F - 27 °F 85% 30.29 in - Calm Calm - -  
8:00 AM 30.2 °F - 26.6 °F 86% 30.24 in - Calm Calm - N/A   Clear
9:00 AM 33 °F - 31 °F 90% 30.31 in - East 2.3 mph - -  
9:00 AM 33.8 °F - 28.4 °F 81% 30.27 in - ENE 1.2 mph - N/A   Clear
9:42 AM 37.4 °F 34.9 °F 32.0 °F 81% 30.27 in - ENE 3.5 mph - N/A   Clear
10:00 AM 39.2 °F 37.0 °F 32.0 °F 75% 30.27 in - East 3.5 mph - N/A   Clear
10:40 AM 42.8 °F 41.1 °F 32.0 °F 66% 30.30 in - ENE 3.5 mph - N/A   Clear
11:00 AM 46 °F - 33 °F 48% 30.32 in - East 3.5 mph - -  
11:00 AM 44.6 °F 43.1 °F 32.0 °F 61% 30.30 in - East 3.5 mph - N/A   Clear
11:36 AM 48.2 °F - 32.0 °F 54% 30.30 in - East 3.5 mph - N/A   Clear
12:00 PM 51 °F - 33 °F 38% 30.31 in - East 5.8 mph - -  
12:00 PM 50.0 °F - 32.0 °F 50% 30.30 in - East 5.8 mph - N/A   Clear
1:00 PM 56 °F - 33 °F 30% 30.28 in 25 mi East 4.6 mph - -  
1:00 PM 55.4 °F - 33.8 °F 44% 30.27 in - East 4.6 mph - N/A   Clear
2:00 PM 59 °F - 32 °F 24% 30.26 in - East 2.3 mph - -  
2:00 PM 59.0 °F - 33.8 °F 39% 30.24 in - Variable 2.3 mph - N/A   Clear
3:00 PM 63 °F - 32 °F 20% 30.23 in - East 2.3 mph - -  
3:00 PM 60.8 °F - 33.8 °F 36% 30.21 in - ESE 1.2 mph - N/A   Clear
4:00 PM 62.6 °F - 33.8 °F 34% 30.21 in - Calm Calm - N/A   Clear
5:00 PM 64 °F - 30 °F 17% 30.22 in - Calm Calm - -  
5:00 PM 62.6 °F - 33.8 °F 34% 30.21 in - Calm Calm - N/A   Clear
6:00 PM 60 °F - 30 °F 20% 30.22 in - Calm Calm - -  
6:00 PM 57.2 °F - 32.0 °F 38% 30.21 in - Calm Calm - N/A   Clear
7:00 PM 50 °F - 34 °F 42% 30.25 in 22 mi Calm Calm - -  
7:00 PM 46.4 °F - 33.8 °F 62% 30.21 in - Calm Calm - N/A   Clear
8:00 PM 45 °F - 34 °F 55% 30.26 in - Calm Calm - -  
8:00 PM 42.8 °F - 32.0 °F 66% 30.24 in - Calm Calm - N/A   Clear
9:00 PM 40 °F - 31 °F 60% 30.28 in - Calm Calm - -  
11:00 PM 35 °F - 29 °F 72% 30.31 in - Calm Calm - -